Satellite-Ground Cal/Val Site Overpasses Predictions

Prediction of Satellite NPP Overpassing Cal/Val Site: Antarctic Dome C

Ground Cal/Val Site Location: Latitude: -75.10, Longitude: 123.35; Satellite-Ground Site NADIR distance within 100 km.

Table of predicted overpasses for the next 14.0 days since TLE Epoch: 5/28/2016
Interval Starting Time Ending Time Minimum Distance Time Minimum Distance (km)
1 05/28/2016 15:08:39 05/28/2016 15:08:47 05/28/2016 15:08:43 95.28
2 05/29/2016 14:49:39 05/29/2016 14:50:08 05/29/2016 14:49:54 16.16
3 05/31/2016 07:32:28 05/31/2016 07:32:58 05/31/2016 07:32:43 1.18
4 06/03/2016 14:55:55 06/03/2016 14:56:23 06/03/2016 14:56:09 20.56
5 06/04/2016 14:37:13 06/04/2016 14:37:27 06/04/2016 14:37:20 86.41
6 06/05/2016 07:38:45 06/05/2016 07:39:13 06/05/2016 07:38:59 36.95
7 06/06/2016 07:19:59 06/06/2016 07:20:18 06/06/2016 07:20:09 73.08
8 06/08/2016 15:02:13 06/08/2016 15:02:37 06/08/2016 15:02:25 57.67
9 06/09/2016 14:43:23 06/09/2016 14:43:48 06/09/2016 14:43:36 51.48


NCC Satellite Cal/Val Overpasses Prediction Service
